CAPE
0 0 0 0 0 0 0 0 0 0 0 0 0 0 0 0 0 0 0 0 0 0 0 0 0 0 0 0 15 9 130 484 652 742 1011 848 746 372 250 196 260 295 396 220
0 0 0 0 0 0 0 0 0 0 0 0 0 0 0 0 0 0 0 0 0 0 0 0 0 0 0 3 64 151 391 686 968 1017 904 761 595 358 284 163 155 156 269 334
0 0 0 0 0 0 0 0 0 0 0 0 0 0 0 0 0 0 0 0 0 0 0 0 0 0 5 43 111 343 698 933 1190 1295 1086 783 544 403 395 279 156 190 372 443
0 0 0 0 0 0 0 0 0 0 0 0 0 0 0 0 0 0 0 0 0 0 0 0 0 0 10 112 369 735 908 1275 1339 1205 1098 1006 842 695 433 266 235 273 420 452
0 0 0 0 0 0 0 0 0 0 0 0 0 0 0 0 0 0 0 0 0 0 0 0 0 0 64 291 397 736 1044 1282 1183 1033 850 682 460 342 253 249 325 420 359 390
0 0 0 0 0 0 0 0 0 0 0 0 0 0 0 0 0 0 0 0 0 0 0 0 0 38 219 417 516 680 871 966 913 682 491 362 387 207 172 204 191 216 241 260
0 0 0 0 0 0 0 0 0 0 0 0 0 0 0 0 0 0 0 0 0 0 0 0 0 78 334 501 612 747 813 706 525 420 284 225 138 133 132 138 137 187 159 75
0 0 5 0 0 0 0 0 0 0 0 0 0 0 0 0 0 0 0 0 0 0 0 0 39 271 438 541 569 642 609 548 529 302 222 157 102 75 106 38 77 96 56 8
0 0 0 0 0 0 0 0 0 0 0 0 0 0 0 0 0 0 0 0 0 0 0 43 214 383 518 571 542 493 497 454 322 236 190 128 76 6 79 80 98 85 20 0
0 0 0 0 0 0 0 0 0 0 0 0 0 0 0 0 0 0 0 0 0 0 83 189 301 475 561 552 456 516 431 376 254 187 85 13 26 165 111 67 47 11 28 12
0 0 0 0 0 0 0 0 0 0 0 0 0 0 0 0 0 0 0 0 0 38 146 235 402 503 532 469 502 502 350 316 213 91 20 15 10 17 0 11 50 15 8 0
0 0 0 0 0 0 0 0 0 0 0 0 0 0 0 0 0 0 0 0 25 145 240 363 425 496 488 435 488 414 302 335 161 49 17 35 0 0 9 68 75 0 0 0
0 0 0 0 0 3 0 7 0 0 0 0 0 0 0 0 0 0 0 33 211 289 329 384 426 441 473 469 475 419 345 280 108 32 25 0 4 24 5 18 51 0 0 4
1 0 0 0 0 0 0 5 0 0 0 0 0 0 0 0 0 0 0 194 303 324 358 383 394 405 455 429 482 408 260 131 65 43 1 0 0 0 6 0 0 0 0 34
4 0 0 0 0 0 0 0 0 0 0 0 0 0 0 0 0 0 0 85 362 379 359 371 367 351 424 433 431 327 141 23 48 29 28 7 3 0 0 0 0 21 13 44
0 0 1 0 0 3 1 0 0 0 0 0 0 0 0 0 0 0 3 237 350 408 355 358 326 346 398 359 279 219 44 12 17 23 40 33 1 0 0 0 3 4 12 27
1 0 1 0 0 57 2 0 0 0 0 0 0 0 0 0 75 94 274 408 400 431 363 372 361 373 376 272 133 32 13 1 35 56 90 54 6 1 0 0 6 0 12 9
0 0 0 0 0 0 0 140 265 59 0 0 0 0 0 0 168 36 257 451 427 432 388 390 390 383 242 136 2 0 0 12 42 92 166 140 76 1 11 0 0 2 0 0
0 0 0 0 0 0 16 15 7 8 7 133 42 0 0 27 15 40 17 243 339 446 413 405 392 290 109 41 0 0 0 5 55 134 183 122 82 25 24 0 0 0 0 1
0 0 0 0 0 0 0 0 4 6 14 175 71 15 0 1 19 0 0 78 264 396 447 420 349 149 80 0 0 0 0 1 65 118 152 116 91 61 28 0 0 0 10 22
0 0 0 0 0 1 3 1 0 95 59 3 0 0 16 0 0 0 11 83 292 421 471 408 287 175 25 0 0 0 0 0 28 115 145 158 157 107 90 13 0 0 7 10
0 0 0 0 0 0 3 1 0 5 2 5 0 0 1 4 7 1 99 173 303 377 443 438 246 78 0 0 0 0 0 0 0 121 168 177 142 250 109 29 0 7 0 0
0 1 0 0 0 4 10 8 11 7 17 2 0 0 0 0 0 4 85 123 236 434 501 334 117 22 0 0 0 0 0 0 0 119 176 203 178 261 86 36 0 0 0 0
1 6 5 0 7 2 2 0 0 1 6 2 0 0 0 0 0 0 0 104 150 251 545 389 96 3 0 0 0 0 0 0 0 81 221 170 230 190 99 65 8 0 0 0
7 0 0 0 0 0 0 0 2 1 0 0 0 0 0 0 0 0 0 10 152 164 70 454 233 34 0 0 0 0 0 0 3 80 193 209 215 137 86 86 34 5 0 0
22 4 3 1 0 0 0 0 0 0 0 0 0 0 0 0 0 0 0 1 147 324 559 537 530 158 1 0 0 0 0 0 0 48 120 121 147 121 47 59 1 0 0 0
CIN
-0 -0 -0 -0 -0 -0 -0 -0 -0 -0 -0 -0 -0 -0 -0 -0 -0 -0 -0 -0 -0 -0 -0 -0 -0 -0 -0 -0 -137 -144 -165 -278 -320 -334 -315 -316 -295 -344 -340 -308 -242 -182 -121 -160
-0 -0 -0 -0 -0 -0 -0 -0 -0 -0 -0 -0 -0 -0 -0 -0 -0 -0 -0 -0 -0 -0 -0 -0 -0 -0 -0 -84 -171 -186 -238 -287 -330 -347 -353 -308 -287 -321 -274 -292 -258 -256 -178 -118
-0 -0 -0 -0 -0 -0 -0 -0 -0 -0 -0 -0 -0 -0 -0 -0 -0 -0 -0 -0 -0 -0 -0 -0 -0 -0 -114 -187 -180 -221 -292 -344 -346 -281 -287 -306 -318 -300 -249 -249 -243 -183 -104 -66
-0 -0 -0 -0 -0 -0 -0 -0 -0 -0 -0 -0 -0 -0 -0 -0 -0 -0 -0 -0 -0 -0 -0 -0 -0 -0 -178 -244 -349 -330 -342 -318 -317 -295 -267 -241 -231 -219 -235 -201 -174 -121 -89 -70
-0 -0 -0 -0 -0 -0 -0 -0 -0 -0 -0 -0 -0 -0 -0 -0 -0 -0 -0 -0 -0 -0 -0 -0 -0 -0 -320 -374 -405 -416 -377 -316 -320 -291 -280 -288 -290 -268 -246 -196 -132 -94 -94 -59
-0 -0 -0 -0 -0 -0 -0 -0 -0 -0 -0 -0 -0 -0 -0 -0 -0 -0 -0 -0 -0 -0 -0 -0 -0 -353 -368 -480 -456 -420 -380 -340 -332 -333 -336 -323 -272 -263 -247 -193 -150 -95 -72 -64
-0 -0 -0 -0 -0 -0 -0 -0 -0 -0 -0 -0 -0 -0 -0 -0 -0 -0 -0 -0 -0 -0 -0 -0 -0 -291 -414 -449 -465 -412 -365 -366 -394 -378 -358 -330 -301 -249 -215 -174 -133 -74 -61 -75
-1 -0 -3 -0 -0 -0 -0 -0 -0 -0 -0 -0 -0 -0 -0 -0 -0 -0 -0 -0 -0 -0 -0 -0 -295 -359 -441 -491 -481 -413 -381 -399 -370 -375 -348 -321 -299 -266 -195 -211 -129 -78 -66 -80
-0 -0 -0 -0 -0 -0 -0 -0 -0 -0 -0 -0 -0 -0 -0 -0 -0 -0 -0 -0 -0 -0 -0 -350 -383 -432 -462 -466 -469 -438 -400 -403 -387 -360 -334 -292 -275 -70 -204 -155 -98 -84 -92 -0
-0 -0 -0 -0 -0 -0 -0 -0 -0 -0 -0 -0 -0 -0 -0 -0 -0 -0 -0 -0 -0 -0 -402 -366 -376 -414 -427 -436 -452 -383 -372 -372 -366 -330 -322 -357 -315 -160 -153 -121 -98 -137 -77 -60
-0 -0 -0 -0 -0 -0 -0 -0 -0 -0 -0 -0 -0 -0 -0 -0 -0 -0 -0 -0 -0 -346 -330 -355 -405 -391 -393 -408 -396 -353 -357 -335 -321 -314 -357 -336 -289 -208 -30 -177 -110 -103 -47 -0
-0 -0 -0 -0 -0 -0 -0 -0 -0 -0 -0 -0 -0 -0 -0 -0 -0 -0 -0 -0 -200 -293 -338 -372 -390 -388 -378 -380 -357 -331 -327 -273 -282 -311 -343 -275 -14 -0 -194 -119 -64 -0 -0 -0
-4 -0 -0 -0 -0 -5 -0 -68 -0 -0 -0 -0 -0 -0 -0 -0 -0 -0 -0 -229 -302 -327 -398 -390 -356 -362 -343 -349 -321 -292 -273 -250 -266 -324 -308 -0 -231 -168 -135 -112 -59 -0 -0 -19
-0 -0 -0 -0 -0 -0 -0 -33 -0 -0 -0 -0 -0 -0 -0 -0 -0 -0 -0 -240 -271 -324 -338 -367 -353 -351 -336 -319 -294 -265 -256 -268 -284 -291 -125 -0 -0 -0 -120 -17 -0 -0 -6 -23
-1 -0 -0 -0 -0 -0 -0 -0 -0 -0 -0 -0 -0 -0 -0 -0 -0 -0 -0 -158 -244 -279 -322 -334 -347 -354 -327 -302 -273 -246 -279 -342 -308 -297 -255 -305 -43 -0 -0 -0 -0 -27 -21 -43
-0 -0 -0 -0 -0 -121 -0 -1 -0 -0 -0 -0 -0 -0 -0 -0 -0 -0 -15 -185 -219 -275 -299 -325 -334 -336 -303 -294 -277 -271 -337 -367 -358 -302 -239 -208 -67 -0 -0 -0 -38 -38 -34 -43
-0 -0 -0 -0 -0 -32 -66 -0 -0 -0 -0 -0 -0 -0 -0 -0 -74 -212 -154 -210 -231 -250 -287 -298 -328 -315 -297 -283 -328 -391 -362 -62 -320 -270 -177 -156 -197 -110 -0 -0 -28 -0 -35 -48
-0 -0 -0 -0 -0 -0 -0 -38 -12 -88 -4 -0 -0 -0 -0 -0 -142 -349 -236 -244 -236 -261 -272 -286 -297 -295 -307 -313 -113 -0 -0 -396 -332 -221 -122 -113 -102 -110 -83 -0 -0 -29 -7 -0
-0 -0 -1 -0 -0 -0 -36 -69 -17 -17 -51 -92 -90 -0 -0 -213 -245 -245 -62 -200 -208 -249 -268 -271 -279 -275 -325 -375 -0 -0 -0 -215 -317 -190 -118 -133 -128 -122 -69 -0 -0 -0 -0 -81
-0 -0 -0 -0 -0 -0 -0 -0 -0 -0 -111 -95 -161 -130 -0 -25 -106 -0 -0 -254 -152 -164 -211 -241 -263 -294 -326 -0 -0 -0 -0 -201 -302 -215 -144 -160 -144 -124 -88 -4 -0 -0 -50 -38
-0 -0 -0 -0 -0 -1 -0 -0 -0 -18 -57 -101 -0 -0 -178 -0 -0 -0 -142 -214 -176 -155 -180 -214 -246 -252 -329 -0 -0 -0 -0 -0 -308 -218 -177 -149 -135 -115 -80 -121 -0 -0 -52 -47
-0 -0 -0 -0 -0 -0 -0 -0 -0 -0 -0 -0 -0 -0 -37 -60 -25 -72 -233 -202 -162 -156 -188 -192 -235 -301 -0 -0 -0 -0 -0 -0 -0 -215 -171 -146 -152 -85 -116 -110 -0 -45 -0 -0
-0 -0 -0 -0 -0 -0 -0 -0 -1 -0 -0 -0 -0 -0 -0 -4 -12 -215 -198 -208 -238 -199 -203 -214 -238 -321 -0 -0 -0 -0 -0 -0 -0 -236 -185 -157 -161 -118 -181 -147 -22 -0 -0 -0
-0 -4 -0 -0 -1 -0 -0 -0 -0 -0 -1 -0 -0 -0 -0 -0 -0 -0 -0 -230 -234 -186 -169 -203 -252 -63 -0 -0 -0 -0 -0 -0 -0 -267 -187 -205 -166 -179 -215 -206 -218 -0 -0 -0
-1 -2 -0 -0 -0 -0 -0 -0 -3 -0 -0 -0 -0 -0 -0 -0 -0 -0 -0 -343 -174 -132 -184 -119 -188 -251 -0 -0 -0 -0 -0 -0 -362 -298 -244 -230 -223 -272 -276 -262 -257 -88 -0 -0
-2 -5 -1 -0 -0 -0 -0 -0 -0 -1 -0 -0 -0 -0 -0 -0 -0 -0 -0 -116 -228 -167 -176 -140 -134 -188 -195 -0 -0 -0 -0 -0 -0 -388 -317 -319 -304 -319 -347 -330 -17 -0 -0 -0
Wind_Speed
32 40 45 39 37 39 40 47 48 37 37 39 44 55 53 45 38 41 42 39 20 23 19 21 17 12 12 13 13 13 12 11 12 8 8 7 5 4 4 2 1 3 5 5
37 47 42 39 38 42 46 49 50 42 38 36 39 46 52 51 45 35 30 24 23 30 23 18 18 12 10 9 12 14 12 12 11 8 8 8 3 4 4 4 4 5 4 4
38 34 40 44 43 45 46 48 47 44 41 49 45 49 50 52 44 42 43 43 36 32 27 30 19 12 8 9 9 8 11 9 8 7 6 6 7 7 7 7 7 5 4 4
39 39 42 37 46 43 53 42 42 46 46 53 38 60 53 54 56 49 32 22 42 46 27 18 15 11 9 8 7 7 6 5 4 3 3 1 3 4 5 6 6 5 5 5
39 29 32 41 43 38 51 42 40 41 40 44 43 43 62 39 46 34 45 47 48 37 12 16 10 9 6 4 5 6 4 2 2 3 3 3 4 5 7 6 6 6 8 8
39 37 37 37 36 35 33 38 40 45 37 48 38 28 54 44 45 45 42 39 31 38 36 14 9 4 3 3 4 3 1 2 3 4 5 5 5 7 8 7 8 9 10 9
35 39 38 38 41 38 36 34 36 38 43 46 27 29 31 22 24 29 36 38 31 21 10 7 7 3 3 1 1 3 3 2 4 6 6 7 9 8 8 8 9 10 9 9
30 34 30 24 29 36 36 34 36 41 38 41 36 35 49 45 46 45 44 43 37 17 10 6 2 3 2 3 4 4 4 3 6 6 7 9 9 8 9 9 9 10 9 8
27 31 25 30 31 28 34 44 37 41 42 35 37 49 55 45 41 41 43 42 35 14 5 4 1 3 6 5 5 7 6 7 7 8 8 9 9 9 9 10 11 10 10 11
25 35 29 29 29 34 34 31 36 37 44 44 40 41 44 32 41 35 37 41 14 8 1 6 7 7 6 6 7 8 9 7 7 7 8 8 9 9 10 11 11 11 12 13
26 29 30 30 30 37 36 40 35 33 38 43 47 50 33 37 36 35 36 30 3 4 8 11 10 9 9 8 8 10 9 8 8 8 9 9 10 10 11 11 11 13 14 13
25 27 37 39 39 37 36 40 37 42 47 42 47 61 31 34 35 36 34 11 3 9 12 12 12 10 8 10 12 11 10 9 9 9 9 9 11 11 11 12 12 14 14 14
22 25 34 35 29 26 35 31 33 39 42 53 47 49 37 42 37 36 27 9 3 8 9 9 10 11 11 14 14 12 10 9 10 10 10 10 11 11 11 11 11 12 13 14
17 23 29 36 32 31 37 36 34 35 43 50 54 50 48 44 43 39 21 12 6 11 14 11 10 12 13 15 14 12 10 11 12 11 11 11 11 12 11 12 12 11 12 13
18 24 27 32 35 36 42 44 41 40 41 42 45 44 46 39 40 41 29 10 9 10 12 12 12 15 15 14 13 11 12 13 12 11 11 12 12 12 12 11 12 11 11 13
14 27 27 33 35 36 42 41 41 42 41 45 48 50 37 41 40 37 15 12 14 14 15 13 13 16 15 14 13 13 15 14 14 13 14 14 15 16 16 13 12 11 11 14
24 26 24 26 24 22 31 38 39 36 35 38 46 41 36 32 29 27 13 15 17 16 19 16 15 16 14 14 14 15 16 15 15 15 15 16 17 17 17 16 14 12 12 13
14 12 24 22 23 22 21 19 22 33 37 38 42 43 41 32 20 24 18 15 16 16 15 16 14 14 14 15 15 16 16 16 16 16 17 17 18 17 18 18 16 13 11 10
18 14 23 21 20 22 21 18 23 28 37 30 36 45 37 23 21 21 20 17 14 13 13 14 11 14 14 17 16 18 16 16 16 18 19 19 18 18 19 18 17 14 12 11
20 18 25 20 15 17 22 23 25 27 39 25 24 26 28 22 26 25 25 26 18 14 13 11 11 14 15 16 18 19 18 16 19 20 21 20 20 19 19 17 17 18 17 15
16 20 22 23 19 19 17 29 30 29 29 25 24 24 16 25 28 25 23 19 19 16 14 11 13 17 18 18 19 20 20 18 21 22 22 21 20 20 19 18 18 18 19 19
8 15 13 17 21 17 21 4 16 20 19 21 21 23 17 11 15 22 21 17 25 16 13 15 15 15 17 21 20 20 20 21 22 22 21 21 21 20 20 19 19 20 21 21
7 7 9 8 11 14 11 9 11 13 13 15 19 22 13 13 10 10 18 15 16 15 13 10 12 13 17 22 21 21 22 23 21 21 22 22 21 20 20 22 23 23 23 23
10 10 9 10 11 14 14 14 11 11 15 15 17 11 8 12 8 6 6 11 11 13 11 12 8 14 14 24 22 21 23 21 21 23 22 23 22 22 22 24 25 26 25 25
12 13 14 13 15 14 13 20 17 17 18 8 7 6 8 11 6 2 4 4 8 11 18 15 9 13 17 28 25 22 22 21 23 25 25 25 25 25 25 25 26 25 24 25
17 14 15 16 20 21 21 20 21 15 14 14 13 11 8 7 5 6 5 4 5 10 15 15 14 17 16 29 29 23 22 23 24 26 27 26 26 26 26 26 26 23 23 24
Wind_Direction
252 248 245 245 251 258 264 262 267 274 273 271 270 272 275 281 284 285 286 290 268 252 266 259 267 271 288 294 298 301 299 304 311 304 304 310 303 326 328 328 313 300 284 293
247 247 252 256 258 258 260 262 264 272 274 276 277 275 273 272 280 283 288 287 248 297 291 265 298 283 274 283 302 305 298 299 308 301 297 300 309 326 328 328 302 303 296 303
251 258 253 254 256 256 258 259 264 268 275 269 277 278 276 270 278 280 281 282 293 297 285 246 300 267 270 288 298 307 300 299 314 312 313 325 333 338 333 330 332 333 323 331
260 257 257 258 253 256 257 262 267 267 268 267 275 273 274 269 267 275 284 249 283 276 296 261 287 261 266 288 307 317 322 320 331 348 358 1 337 336 347 354 352 349 350 349
250 259 256 254 256 258 257 262 264 265 267 268 267 277 259 279 275 280 247 270 261 240 257 238 261 262 269 289 313 313 339 358 18 23 43 74 35 16 2 6 20 22 5 357
256 259 260 259 261 261 265 261 260 260 266 262 265 270 252 254 237 245 269 273 283 264 246 312 313 299 290 315 327 315 356 47 55 50 60 60 42 21 24 30 23 17 10 7
258 256 258 259 259 261 257 257 255 257 253 257 263 263 228 272 263 255 260 266 232 223 299 302 297 264 247 228 65 102 103 49 62 75 57 46 24 34 40 36 24 15 15 22
257 254 255 262 258 256 251 247 247 250 256 258 257 262 228 239 243 257 255 257 244 230 297 292 263 188 182 144 121 114 114 72 86 73 53 34 32 34 31 32 28 24 33 57
264 258 267 265 267 262 251 246 251 258 257 264 257 256 248 244 247 254 269 270 243 299 290 270 210 161 150 130 126 124 113 96 83 70 46 30 31 30 32 27 30 39 63 68
273 264 268 272 272 259 252 254 245 248 248 252 256 255 248 257 241 265 279 264 296 304 129 129 129 133 138 122 119 115 112 97 79 63 41 42 40 43 40 39 54 66 81 81
283 268 267 276 265 253 253 246 248 250 252 249 252 250 257 249 253 266 278 290 287 144 135 130 126 126 122 118 119 117 110 95 79 66 65 60 53 59 48 56 69 95 99 90
283 278 267 268 268 259 253 249 249 245 243 250 252 242 256 249 264 271 289 296 135 131 131 127 129 125 125 127 125 119 109 99 88 86 74 66 53 52 44 47 70 99 97 92
291 279 273 273 269 256 248 243 248 250 248 244 249 248 253 248 263 267 290 269 182 127 130 133 131 126 126 129 126 121 112 101 103 83 71 65 61 58 50 49 71 86 85 97
308 284 281 265 261 266 250 244 250 248 243 244 246 249 242 249 252 258 290 265 172 144 139 140 134 130 130 130 127 123 111 109 110 93 75 73 70 75 68 72 77 81 88 92
309 294 290 274 269 264 252 246 246 246 245 244 243 247 239 249 254 260 279 226 185 158 146 145 138 135 132 130 127 121 117 112 109 99 85 85 74 71 67 69 70 70 79 99
315 281 275 273 273 264 249 244 245 247 246 244 242 241 248 253 264 266 255 196 180 162 148 145 139 135 134 131 127 124 124 116 111 104 97 91 91 102 92 69 60 63 65 86
215 263 272 273 289 270 246 244 245 245 242 241 237 240 243 261 269 262 233 183 168 159 147 145 142 136 132 129 124 125 125 116 112 111 103 102 108 109 103 88 76 66 78 86
173 154 226 236 248 260 252 264 253 245 241 239 242 237 237 255 262 262 243 205 174 155 147 145 141 133 127 126 122 121 118 116 112 112 111 112 113 108 108 98 85 74 72 77
172 155 237 240 274 262 262 261 258 241 231 244 244 232 240 248 253 253 245 221 211 179 160 152 147 132 126 128 124 122 118 116 114 118 119 118 112 109 114 100 94 82 73 70
166 166 210 218 220 219 202 249 249 245 220 236 238 234 229 240 243 247 240 231 225 204 174 164 147 131 129 128 125 124 123 119 125 127 130 122 118 116 117 106 103 111 100 97
194 196 192 209 204 189 267 269 229 209 214 242 237 232 230 235 246 245 240 236 216 184 176 165 144 137 133 129 127 128 128 126 134 133 130 125 122 119 117 110 117 109 110 104
228 213 227 212 206 218 313 282 190 221 236 238 234 225 221 238 238 223 222 228 212 184 174 148 138 136 133 132 129 130 132 134 132 134 128 126 124 116 115 109 114 116 118 114
247 266 236 242 237 256 250 257 250 248 240 240 230 228 230 245 272 247 225 224 211 188 188 174 140 133 132 134 132 131 136 136 130 129 130 128 123 116 116 115 119 125 129 125
237 273 258 240 240 292 269 294 282 255 248 243 234 231 206 235 248 235 216 212 200 202 191 206 173 137 135 140 137 133 136 133 131 131 127 127 126 124 123 129 132 133 131 134
264 285 290 273 281 288 256 292 271 257 268 257 240 211 211 227 227 267 229 211 212 226 225 221 190 142 139 149 145 137 135 134 136 137 135 134 136 135 132 139 145 146 147 139
293 281 292 278 291 285 269 277 282 262 279 282 257 242 274 253 250 269 269 261 251 240 237 234 225 147 142 156 155 143 138 140 139 140 142 140 138 140 140 143 151 167 160 153